Temp
62 62 63 63 64 65 66 66 67 67 67 67 68 69 69 69 69 69 70 70 71 71 71 71 71 71 71 71 71 71 71 71 71 71 71 72 72 72 72 71 71 69 69 68 68 66 64 63 62 62 62 62
61 61 62 62 63 63 64 65 65 65 65 66 66 66 66 66 67 68 69 69 70 70 70 70 69 69 70 71 71 71 71 71 71 71 71 71 72 72 71 71 69 67 68 67 66 65 64 62 61 61 61 61
60 60 60 61 62 62 63 63 63 63 63 63 62 62 63 64 65 65 66 66 67 69 69 68 68 67 70 71 71 71 71 71 71 71 71 71 71 71 71 69 67 66 67 66 65 64 62 61 61 61 60 59
60 60 59 60 61 61 61 61 61 61 61 61 61 61 61 62 63 64 64 65 66 66 66 66 66 65 68 70 71 71 70 70 71 71 70 70 71 71 69 68 66 65 66 65 63 62 61 60 60 59 57 59
59 59 59 59 59 59 59 60 59 60 60 60 61 61 61 61 62 63 64 65 65 64 64 65 64 64 65 69 70 70 69 69 70 70 70 70 70 69 67 65 64 63 64 63 62 61 60 59 58 57 57 57
57 57 58 58 57 57 58 58 57 59 60 59 62 61 62 62 62 63 64 64 61 64 64 64 63 63 64 68 69 69 69 68 69 70 69 69 69 66 65 63 60 60 62 62 61 59 58 57 56 55 55 55
56 56 56 55 55 55 56 56 56 57 57 58 60 61 62 62 63 63 63 64 63 63 63 64 62 62 63 66 68 68 68 67 67 68 68 68 68 65 63 61 57 56 57 57 59 58 56 55 55 55 55 54
54 54 54 53 53 53 54 54 55 55 55 56 56 57 60 61 62 63 63 60 58 58 63 63 61 61 61 63 64 65 66 66 65 65 67 66 66 64 61 57 55 54 54 54 53 53 53 52 53 53 53 52
52 52 52 52 51 52 52 51 52 52 53 53 54 55 56 57 60 62 62 63 63 62 63 63 63 61 61 61 63 60 61 60 61 61 62 63 61 57 56 55 54 53 52 52 53 52 51 51 51 51 51 51
51 51 50 49 49 50 50 50 50 50 51 51 52 53 54 55 57 60 61 61 62 62 62 62 62 61 60 60 58 57 58 58 58 57 56 54 53 53 53 53 53 53 52 51 51 51 51 50 49 48 48 49
50 49 49 48 48 47 47 48 48 48 49 49 50 51 52 52 54 56 58 59 60 60 60 59 59 58 58 58 55 56 56 53 52 51 51 51 51 51 51 51 50 50 50 50 49 48 48 48 47 46 46 46
48 47 47 47 47 47 47 46 46 46 47 48 48 49 50 51 53 54 55 57 57 58 58 56 55 55 55 54 54 53 53 51 51 50 50 50 49 49 48 48 48 47 47 47 47 46 46 45 45 45 44 44
46 46 46 45 45 44 45 44 44 45 46 46 46 47 48 49 50 52 53 53 54 55 55 54 53 53 53 53 52 52 51 51 50 49 48 48 47 47 46 46 45 45 44 44 43 43 42 42 41 41 41 41
44 44 43 43 43 43 44 43 43 44 43 44 44 45 46 47 48 49 50 51 52 53 52 52 52 52 51 51 51 51 50 50 49 48 47 47 47 47 46 45 44 44 43 42 42 42 41 40 40 40 39 39
43 43 42 42 42 42 41 42 42 42 42 42 42 43 44 45 46 47 49 49 50 51 51 51 51 51 51 50 50 49 48 48 48 48 48 48 47 46 46 45 44 45 43 42 42 41 41 40 40 39 39 38
42 41 41 41 41 40 40 41 40 40 40 40 41 42 42 43 44 45 46 47 49 49 50 50 50 50 50 49 49 49 48 47 47 47 47 47 46 45 45 44 43 43 41 40 40 40 39 39 38 38 37 37
42 41 41 40 39 39 39 39 39 38 38 39 39 40 41 41 42 43 44 45 47 48 49 49 49 49 49 49 48 48 48 47 47 46 46 45 45 44 43 42 41 41 40 39 38 38 37 37 36 36 36 35
41 41 40 40 39 38 38 38 37 37 37 38 38 39 39 39 41 41 42 43 44 47 48 48 48 48 48 48 48 48 47 46 46 45 45 44 44 43 42 40 40 39 37 37 37 36 36 36 35 35 34 34
42 41 40 39 38 38 37 37 36 36 37 37 37 37 37 38 39 39 40 41 42 45 46 46 47 47 47 48 48 47 47 46 46 45 44 44 43 42 41 40 39 38 37 36 35 35 35 34 35 34 33 33
42 41 40 39 39 37 37 36 35 35 35 36 36 36 36 36 37 37 38 39 40 42 43 44 45 46 47 47 47 47 46 46 45 45 44 43 43 40 39 38 37 37 35 35 34 35 34 34 34 33 32 32
41 41 40 39 38 37 37 35 35 35 35 35 34 35 34 35 36 36 36 37 38 40 41 42 43 44 45 46 46 46 45 45 44 44 43 42 42 41 39 37 36 35 35 34 34 34 33 33 33 32 32 32
39 40 40 39 38 37 36 36 35 35 34 33 33 33 33 34 34 34 35 35 36 38 39 40 41 42 43 44 45 45 44 44 44 43 42 40 40 40 39 37 35 34 34 33 32 32 32 32 32 31 31 31
39 39 40 39 38 37 36 36 35 35 33 33 33 32 32 32 33 33 34 34 35 36 37 38 39 40 41 42 43 43 43 43 43 42 42 40 38 38 38 37 35 34 33 32 31 30 31 31 31 31 31 30
36 36 36 36 36 36 35 35 34 34 33 33 32 32 32 31 32 32 32 33 34 34 35 35 36 37 39 39 41 42 42 41 41 41 40 39 38 36 36 36 34 34 32 31 31 30 30 30 30 30 30 29
34 33 33 33 33 32 33 33 33 33 33 32 32 31 31 30 30 31 31 31 32 33 33 34 35 36 36 38 38 39 39 40 40 40 39 38 38 36 34 34 34 34 34 32 30 31 30 29 30 30 30 28
35 34 33 32 33 32 32 31 31 30 32 32 32 31 30 30 30 30 30 30 31 32 31 31 32 33 34 35 36 37 38 38 38 39 38 38 36 37 35 33 34 33 36 34 32 30 30 30 29 29 28 28
34 35 34 33 33 32 31 32 33 32 32 32 31 30 30 29 29 29 29 29 29 30 30 30 30 31 32 33 34 35 36 36 35 35 35 35 34 34 34 33 35 33 34 33 33 33 33 32 31 30 27 28
34 34 34 33 33 33 31 30 32 31 31 30 30 28 28 28 27 27 27 27 27 29 29 29 29 30 31 32 32 33 34 35 35 35 34 34 34 34 33 33 32 34 33 33 35 33 33 33 33 32 30 26
33 33 31 30 30 30 30 29 28 29 28 27 28 27 26 25 25 25 25 25 25 26 27 28 28 28 30 31 31 32 32 32 33 34 34 34 34 33 33 33 33 33 33 33 32 33 32 31 30 32 28 26
31 31 30 30 29 28 28 27 27 26 25 26 26 24 24 24 24 23 23 23 23 24 26 25 26 26 28 29 30 31 31 31 31 32 32 33 34 33 33 33 33 32 34 33 33 32 32 32 32 31 28 31
29 29 30 29 29 29 28 27 28 28 29 27 28 25 22 22 22 22 22 22 22 22 23 24 24 24 25 26 27 29 29 29 29 30 31 32 33 33 34 33 32 32 32 33 33 32 32 32 31 32 30 28
MSLP
1020.81 1020.69 1020.53 1020.37 1020.29 1020.21 1020.09 1019.93 1019.77 1019.65 1019.49 1019.25 1019.05 1019.01 1018.81 1018.73 1018.81 1018.65 1018.53 1018.45 1018.53 1018.61 1018.81 1018.97 1018.97 1018.81 1018.53 1018.37 1018.53 1018.73 1018.81 1018.89 1019.05 1019.25 1019.37 1019.41 1019.49 1019.53 1019.53 1019.61 1019.57 1019.73 1019.85 1019.81 1019.77 1019.93 1019.97 1020.17 1020.37 1020.49 1020.61 1020.45
1021.05 1020.93 1020.73 1020.57 1020.45 1020.33 1020.17 1020.01 1019.89 1019.73 1019.57 1019.41 1019.17 1018.93 1018.77 1018.81 1018.81 1018.49 1018.37 1018.37 1018.25 1018.25 1018.57 1018.77 1018.85 1018.81 1018.69 1018.49 1018.33 1018.45 1018.57 1018.61 1018.73 1018.97 1019.13 1019.25 1019.29 1019.37 1019.49 1019.53 1019.65 1019.73 1019.73 1019.73 1019.77 1019.85 1019.93 1020.01 1020.21 1020.37 1020.53 1020.53
1021.25 1021.13 1020.97 1020.73 1020.61 1020.49 1020.29 1020.09 1019.93 1019.77 1019.65 1019.53 1019.37 1019.17 1018.89 1018.69 1018.65 1018.49 1018.37 1018.53 1018.49 1018.29 1018.37 1018.57 1018.73 1018.73 1018.61 1018.49 1018.37 1018.33 1018.29 1018.33 1018.41 1018.53 1018.77 1018.97 1019.09 1019.21 1019.33 1019.57 1019.73 1019.69 1019.65 1019.69 1019.77 1019.89 1019.93 1019.97 1020.17 1020.25 1020.37 1020.49
1021.41 1021.29 1021.13 1020.93 1020.77 1020.61 1020.45 1020.21 1020.01 1019.85 1019.69 1019.49 1019.33 1019.13 1018.93 1018.65 1018.45 1018.33 1018.33 1018.41 1018.21 1018.21 1018.33 1018.37 1018.33 1018.41 1018.45 1018.37 1018.33 1018.29 1018.25 1018.25 1018.25 1018.29 1018.37 1018.49 1018.65 1018.85 1019.17 1019.33 1019.49 1019.57 1019.61 1019.69 1019.81 1019.93 1020.05 1020.05 1020.13 1020.33 1020.41 1020.45
1021.61 1021.49 1021.29 1021.09 1020.97 1020.77 1020.57 1020.33 1020.13 1019.89 1019.65 1019.45 1019.25 1019.05 1018.85 1018.57 1018.45 1018.37 1018.25 1018.21 1018.13 1018.29 1018.21 1018.09 1017.89 1018.01 1018.17 1018.17 1018.13 1018.13 1018.13 1018.17 1018.17 1018.21 1018.29 1018.33 1018.37 1018.57 1018.85 1019.17 1019.29 1019.41 1019.49 1019.61 1019.73 1019.97 1020.13 1020.13 1020.21 1020.37 1020.45 1020.49
1021.93 1021.77 1021.53 1021.37 1021.25 1021.05 1020.85 1020.61 1020.37 1020.05 1019.81 1019.53 1019.21 1019.01 1018.81 1018.65 1018.41 1018.29 1018.25 1018.17 1018.01 1018.09 1018.13 1018.05 1017.97 1017.89 1017.93 1017.93 1017.89 1017.89 1017.89 1017.93 1018.01 1018.13 1018.17 1018.21 1018.25 1018.33 1018.41 1018.65 1018.97 1019.21 1019.29 1019.37 1019.53 1019.85 1020.09 1020.25 1020.33 1020.37 1020.41 1020.45
1022.21 1022.05 1021.85 1021.69 1021.57 1021.37 1021.21 1020.97 1020.69 1020.45 1020.21 1019.93 1019.61 1019.29 1018.97 1018.73 1018.49 1018.25 1018.17 1018.09 1017.93 1017.77 1017.65 1017.73 1017.85 1017.85 1017.73 1017.73 1017.65 1017.61 1017.65 1017.69 1017.81 1018.05 1018.17 1018.17 1018.21 1018.29 1018.33 1018.49 1018.73 1018.97 1019.09 1019.29 1019.41 1019.69 1019.97 1020.13 1020.25 1020.33 1020.33 1020.33
1022.45 1022.33 1022.17 1022.09 1021.89 1021.73 1021.53 1021.33 1021.09 1020.89 1020.65 1020.45 1020.17 1019.81 1019.37 1018.97 1018.69 1018.41 1018.17 1018.05 1017.97 1017.85 1017.65 1017.57 1017.41 1017.45 1017.45 1017.49 1017.49 1017.53 1017.69 1017.77 1017.85 1018.09 1018.25 1018.33 1018.37 1018.45 1018.57 1018.77 1018.97 1019.25 1019.45 1019.49 1019.57 1019.73 1019.97 1020.17 1020.29 1020.41 1020.49 1020.49
1022.73 1022.69 1022.53 1022.41 1022.29 1022.09 1021.93 1021.77 1021.53 1021.29 1021.05 1020.77 1020.45 1020.17 1019.85 1019.49 1018.93 1018.53 1018.25 1018.05 1017.97 1017.85 1017.81 1017.69 1017.37 1017.33 1017.33 1017.49 1017.73 1018.01 1018.25 1018.41 1018.53 1018.73 1018.89 1018.69 1018.57 1018.89 1019.21 1019.33 1019.45 1019.45 1019.57 1019.69 1019.73 1019.89 1020.13 1020.25 1020.41 1020.61 1020.73 1020.77
1023.13 1022.93 1022.93 1022.85 1022.73 1022.53 1022.33 1022.17 1021.97 1021.69 1021.45 1021.13 1020.77 1020.45 1020.13 1019.73 1019.29 1018.85 1018.49 1018.25 1018.05 1017.93 1017.93 1017.77 1017.69 1017.37 1017.21 1017.57 1017.85 1018.05 1018.37 1018.61 1018.81 1019.05 1019.45 1019.65 1019.61 1019.61 1019.77 1020.09 1020.21 1020.17 1020.05 1020.05 1020.09 1020.21 1020.37 1020.49 1020.69 1020.93 1021.13 1021.25
1023.37 1023.37 1023.29 1023.21 1023.05 1022.93 1022.77 1022.57 1022.41 1022.17 1021.85 1021.61 1021.29 1020.81 1020.45 1020.09 1019.69 1019.25 1018.85 1018.53 1018.29 1018.09 1018.09 1018.13 1018.01 1017.89 1017.41 1017.33 1017.93 1018.13 1018.33 1018.89 1019.17 1019.37 1019.73 1020.17 1020.69 1020.73 1020.57 1020.53 1020.65 1020.73 1020.81 1020.85 1020.89 1020.85 1020.89 1020.89 1021.01 1021.25 1021.49 1021.65
1023.69 1023.69 1023.61 1023.53 1023.33 1023.21 1023.17 1023.01 1022.85 1022.69 1022.37 1022.09 1021.61 1021.25 1020.93 1020.53 1020.13 1019.77 1019.33 1018.93 1018.57 1018.37 1018.29 1018.29 1018.13 1018.13 1018.29 1017.97 1017.81 1018.13 1018.21 1018.49 1018.89 1019.21 1019.29 1019.45 1019.97 1020.89 1021.57 1021.57 1021.33 1021.37 1021.45 1021.41 1021.41 1021.57 1021.69 1021.57 1021.53 1021.69 1021.89 1022.13
1024.05 1024.01 1023.97 1023.85 1023.73 1023.69 1023.53 1023.41 1023.33 1023.13 1022.81 1022.45 1022.05 1021.69 1021.41 1021.01 1020.61 1020.21 1019.89 1019.53 1019.17 1018.81 1018.69 1018.61 1018.53 1018.69 1018.89 1018.77 1018.29 1017.97 1017.97 1018.09 1018.65 1019.13 1019.45 1019.77 1020.13 1020.29 1020.85 1021.65 1021.61 1021.81 1022.05 1022.13 1022.17 1022.09 1022.29 1022.33 1022.21 1022.13 1022.25 1022.45
1024.41 1024.37 1024.29 1024.21 1024.17 1024.05 1023.89 1023.81 1023.69 1023.41 1023.17 1022.93 1022.53 1022.17 1021.85 1021.57 1021.25 1020.89 1020.53 1020.21 1019.73 1019.37 1019.25 1019.17 1018.97 1018.89 1019.01 1019.25 1019.33 1018.81 1018.73 1018.89 1018.73 1018.81 1019.01 1019.25 1019.45 1019.57 1019.61 1019.97 1020.77 1021.17 1021.81 1022.09 1022.25 1022.45 1022.57 1022.65 1022.73 1022.53 1022.45 1022.73
1024.81 1024.73 1024.69 1024.65 1024.49 1024.33 1024.21 1024.05 1023.81 1023.61 1023.45 1023.21 1022.93 1022.65 1022.29 1021.97 1021.65 1021.33 1020.97 1020.65 1020.41 1020.09 1019.77 1019.53 1019.45 1019.37 1019.25 1019.25 1019.57 1019.45 1019.37 1019.29 1019.37 1019.49 1019.45 1019.57 1019.81 1020.05 1020.33 1020.69 1020.57 1020.17 1020.49 1021.05 1021.73 1022.09 1022.45 1022.85 1022.77 1022.65 1022.85 1023.05
1025.05 1025.01 1025.01 1024.93 1024.77 1024.65 1024.57 1024.33 1024.09 1023.89 1023.69 1023.49 1023.29 1023.01 1022.73 1022.37 1022.05 1021.77 1021.49 1021.17 1020.81 1020.61 1020.41 1020.17 1019.85 1019.61 1019.41 1019.45 1019.53 1019.77 1019.89 1019.81 1019.93 1019.93 1019.97 1020.01 1020.13 1020.45 1020.85 1021.17 1021.37 1021.49 1021.45 1021.69 1021.97 1022.25 1022.49 1022.89 1022.89 1022.93 1023.05 1023.21
1025.41 1025.33 1025.25 1025.13 1025.01 1024.93 1024.81 1024.61 1024.41 1024.25 1024.09 1023.89 1023.69 1023.37 1023.09 1022.77 1022.45 1022.13 1021.89 1021.61 1021.29 1020.97 1020.77 1020.65 1020.45 1020.25 1020.17 1020.09 1019.85 1019.69 1019.93 1020.17 1020.25 1020.25 1020.25 1020.37 1020.37 1020.73 1021.21 1021.61 1022.05 1022.17 1022.29 1022.61 1022.77 1022.57 1022.85 1023.17 1023.25 1023.17 1023.17 1023.45
1025.57 1025.57 1025.49 1025.37 1025.29 1025.21 1025.01 1024.85 1024.77 1024.65 1024.49 1024.25 1024.01 1023.77 1023.45 1023.17 1022.89 1022.65 1022.33 1022.05 1021.65 1021.33 1021.13 1021.01 1020.97 1020.93 1020.77 1020.65 1020.53 1020.45 1020.41 1020.45 1020.57 1020.77 1020.85 1020.85 1020.65 1021.01 1021.25 1021.77 1022.21 1022.37 1022.77 1023.33 1023.53 1023.69 1023.65 1023.57 1023.77 1023.57 1023.37 1023.65
1025.61 1025.69 1025.69 1025.61 1025.53 1025.49 1025.29 1025.17 1025.09 1024.93 1024.77 1024.49 1024.37 1024.17 1023.89 1023.57 1023.33 1023.17 1022.89 1022.57 1022.25 1021.85 1021.69 1021.49 1021.41 1021.37 1021.33 1021.17 1020.97 1020.89 1020.85 1020.85 1020.93 1020.97 1021.13 1021.33 1021.49 1021.65 1021.81 1022.09 1022.49 1022.73 1023.09 1023.49 1024.01 1024.41 1024.53 1024.53 1024.45 1023.81 1023.81 1024.13
1025.61 1025.65 1025.77 1025.81 1025.81 1025.77 1025.61 1025.53 1025.37 1025.29 1025.13 1024.89 1024.69 1024.45 1024.29 1024.01 1023.81 1023.57 1023.33 1023.01 1022.73 1022.41 1022.21 1022.05 1021.89 1021.81 1021.65 1021.49 1021.41 1021.37 1021.33 1021.33 1021.41 1021.49 1021.57 1021.73 1021.89 1022.09 1022.53 1022.61 1023.01 1023.21 1023.37 1023.65 1024.21 1024.69 1024.93 1025.17 1024.85 1024.29 1024.37 1024.69
1025.65 1025.61 1025.73 1025.85 1025.97 1025.93 1025.85 1025.81 1025.69 1025.61 1025.45 1025.21 1025.05 1024.93 1024.73 1024.49 1024.25 1024.05 1023.85 1023.53 1023.25 1022.97 1022.73 1022.49 1022.33 1022.17 1022.01 1021.85 1021.73 1021.73 1021.69 1021.77 1021.89 1021.93 1022.09 1022.25 1022.41 1022.57 1022.93 1023.25 1023.53 1023.85 1023.97 1024.17 1024.53 1024.89 1025.21 1025.29 1025.05 1024.89 1025.05 1025.25
1025.89 1025.73 1025.69 1025.81 1025.89 1026.01 1026.01 1026.01 1026.01 1025.97 1025.81 1025.69 1025.57 1025.41 1025.25 1025.05 1024.73 1024.49 1024.29 1024.05 1023.77 1023.53 1023.29 1023.09 1022.93 1022.65 1022.41 1022.21 1022.05 1021.97 1022.05 1022.13 1022.17 1022.29 1022.41 1022.69 1022.97 1023.09 1023.33 1023.73 1024.01 1024.33 1024.53 1024.73 1025.05 1025.33 1025.49 1025.53 1025.41 1025.49 1025.61 1025.73
1026.21 1026.01 1025.85 1025.81 1025.81 1025.97 1026.05 1026.09 1026.25 1026.25 1026.17 1026.13 1026.01 1025.89 1025.73 1025.49 1025.21 1025.01 1024.77 1024.53 1024.21 1023.97 1023.73 1023.53 1023.33 1023.17 1023.01 1022.77 1022.49 1022.33 1022.33 1022.41 1022.53 1022.57 1022.73 1022.97 1023.37 1023.57 1023.81 1024.05 1024.33 1024.61 1024.81 1025.13 1025.45 1025.77 1026.01 1026.01 1026.01 1026.01 1026.09 1026.17
1026.41 1026.33 1026.25 1026.05 1025.97 1025.85 1026.09 1026.25 1026.33 1026.45 1026.53 1026.53 1026.45 1026.37 1026.13 1025.93 1025.69 1025.49 1025.25 1025.01 1024.73 1024.49 1024.25 1024.05 1023.85 1023.69 1023.45 1023.25 1023.05 1022.81 1022.65 1022.73 1022.77 1022.97 1023.05 1023.33 1023.45 1023.81 1024.17 1024.41 1024.61 1024.77 1024.89 1025.29 1025.65 1026.09 1026.33 1026.45 1026.45 1026.49 1026.57 1026.57
1026.89 1026.81 1026.65 1026.41 1026.45 1026.57 1026.65 1026.61 1026.61 1026.69 1026.77 1026.77 1026.81 1026.77 1026.61 1026.41 1026.17 1025.97 1025.69 1025.45 1025.21 1025.01 1024.81 1024.57 1024.33 1024.05 1023.93 1023.73 1023.53 1023.45 1023.37 1023.17 1023.13 1023.17 1023.33 1023.61 1023.77 1023.97 1024.25 1024.77 1024.85 1024.85 1024.73 1024.85 1025.49 1026.21 1026.41 1026.65 1026.73 1026.89 1026.93 1027.01
1027.13 1027.13 1027.25 1027.25 1027.13 1027.13 1027.01 1026.93 1026.77 1026.85 1026.89 1027.01 1027.09 1027.09 1027.01 1026.85 1026.69 1026.41 1026.17 1025.97 1025.77 1025.53 1025.37 1025.13 1024.89 1024.69 1024.53 1024.29 1024.13 1023.89 1023.65 1023.57 1023.61 1023.61 1023.65 1023.73 1023.89 1024.17 1024.33 1024.77 1024.97 1024.85 1024.41 1024.13 1024.33 1024.89 1025.73 1026.41 1026.81 1026.97 1027.13 1027.29
1027.37 1027.29 1027.21 1027.21 1027.21 1027.21 1027.21 1027.21 1027.17 1027.17 1027.29 1027.25 1027.29 1027.33 1027.33 1027.25 1027.09 1026.89 1026.65 1026.49 1026.29 1026.01 1025.81 1025.65 1025.45 1025.25 1025.09 1024.85 1024.65 1024.29 1023.97 1023.81 1023.89 1024.01 1024.09 1024.13 1024.13 1024.33 1024.65 1024.93 1025.13 1025.09 1025.09 1024.29 1025.09 1024.93 1024.65 1024.45 1024.81 1026.21 1027.01 1027.29
1027.53 1027.45 1027.37 1027.25 1027.17 1027.21 1027.29 1027.41 1027.45 1027.37 1027.41 1027.41 1027.33 1027.41 1027.57 1027.57 1027.53 1027.33 1027.21 1027.01 1026.81 1026.53 1026.33 1026.13 1025.97 1025.77 1025.53 1025.37 1025.13 1024.93 1024.65 1024.41 1024.29 1024.33 1024.33 1024.33 1024.41 1024.49 1024.61 1025.13 1025.17 1025.29 1025.37 1025.09 1024.41 1023.57 1024.01 1024.41 1024.37 1023.57 1024.49 1026.73
1027.69 1027.49 1027.37 1027.37 1027.33 1027.33 1027.29 1027.37 1027.53 1027.45 1027.37 1027.57 1027.65 1027.77 1027.73 1027.89 1027.89 1027.81 1027.65 1027.49 1027.29 1027.01 1026.77 1026.57 1026.45 1026.21 1025.93 1025.69 1025.53 1025.37 1025.21 1025.13 1025.09 1024.85 1024.73 1024.65 1024.61 1024.65 1024.77 1024.89 1025.25 1025.41 1025.53 1025.37 1025.61 1024.73 1024.45 1024.37 1024.29 1023.53 1025.37 1026.53
1027.85 1027.77 1027.77 1027.65 1027.53 1027.53 1027.57 1027.61 1027.73 1027.97 1028.17 1028.09 1028.05 1028.33 1028.45 1028.37 1028.29 1028.21 1028.05 1027.89 1027.73 1027.53 1027.21 1027.01 1026.85 1026.61 1026.37 1026.13 1025.93 1025.81 1025.73 1025.73 1025.57 1025.49 1025.25 1025.13 1024.89 1024.77 1024.93 1024.89 1025.01 1025.21 1025.41 1025.69 1025.73 1025.81 1025.81 1025.61 1024.49 1023.97 1025.33 1025.25
1028.13 1028.01 1027.97 1027.97 1028.01 1028.17 1028.21 1028.29 1028.37 1028.53 1028.53 1028.61 1028.57 1028.69 1028.77 1028.73 1028.65 1028.57 1028.45 1028.29 1028.17 1028.01 1027.77 1027.57 1027.37 1027.17 1026.93 1026.73 1026.53 1026.29 1026.13 1026.09 1026.13 1026.05 1025.89 1025.61 1025.17 1025.05 1025.01 1024.97 1025.01 1025.13 1025.25 1025.45 1025.49 1025.65 1025.85 1025.81 1025.89 1025.73 1025.41 1024.77
Wind_Speed
15 18 19 19 18 17 16 16 17 17 16 16 16 16 17 17 12 15 14 13 16 15 14 14 13 12 14 15 14 14 14 13 12 12 11 11 12 11 11 10 9 4 5 7 10 10 11 10 9 7 4 5
13 15 17 17 18 18 18 17 17 15 16 16 17 18 17 13 9 14 15 15 17 14 15 14 13 13 13 14 13 14 14 14 13 13 12 12 12 11 11 10 5 4 5 6 10 10 11 11 9 7 6 3
10 14 15 13 15 17 18 18 15 15 14 14 14 15 15 14 11 10 13 14 14 14 16 14 14 13 14 14 14 14 13 14 15 15 13 12 12 12 10 9 5 5 6 7 8 9 9 10 9 8 5 3
10 12 14 13 14 15 14 15 15 15 14 14 13 13 13 13 11 9 9 15 16 14 16 16 15 13 13 14 15 15 14 13 14 15 15 14 14 12 12 11 9 7 7 8 7 8 8 8 8 5 3 3
9 10 13 11 12 14 14 13 15 14 12 12 11 11 11 12 8 6 8 11 11 13 11 14 15 13 14 15 16 16 14 12 13 14 14 14 14 11 13 10 9 9 9 10 9 8 8 7 5 3 3 3
8 9 10 11 11 10 12 12 13 11 11 10 8 11 9 7 6 6 6 8 9 10 10 12 14 13 15 17 17 16 15 13 14 14 14 14 14 14 14 14 8 7 10 12 12 10 9 5 3 3 4 3
8 9 8 9 9 9 12 12 12 11 12 11 12 11 9 7 6 7 6 7 8 10 13 12 12 15 16 17 17 17 16 15 13 13 13 14 13 14 15 9 7 7 7 7 11 10 6 5 4 4 3 3
7 7 7 7 7 8 9 10 10 10 10 10 11 12 10 8 8 7 6 6 10 12 11 10 15 16 16 18 17 16 13 13 12 12 12 12 11 10 5 4 4 5 4 5 5 5 5 4 4 3 2 2
7 7 6 7 8 8 8 9 9 9 8 9 8 10 8 10 9 8 6 6 6 5 5 7 8 8 8 7 5 2 4 6 5 3 5 5 4 3 3 3 3 4 5 4 5 5 4 5 4 4 3 3
7 7 7 7 8 8 8 8 9 8 9 10 9 8 9 9 9 8 7 6 6 5 5 8 6 5 2 3 3 3 4 5 6 6 7 9 9 7 6 7 6 5 3 4 4 4 4 5 5 5 5 5
6 6 6 6 6 7 8 8 8 9 8 8 11 9 10 10 10 9 7 7 6 7 4 4 4 4 3 6 5 4 6 7 7 8 8 9 9 9 8 8 8 7 8 7 6 5 6 6 6 6 5 6
7 6 7 7 6 6 8 8 8 8 9 9 9 10 10 9 8 9 10 9 8 6 5 5 3 2 3 3 5 5 7 7 7 7 7 9 9 9 8 9 9 9 8 8 7 7 7 7 7 6 5 6
6 6 7 7 7 7 8 7 7 8 8 8 8 9 10 9 10 10 9 10 9 7 6 6 6 6 6 5 2 4 5 7 7 7 7 7 8 8 9 6 7 7 7 7 8 8 7 7 7 7 7 7
7 7 7 7 7 6 7 7 7 9 7 8 8 8 9 9 7 8 9 10 9 8 7 6 6 6 6 6 7 6 5 4 3 6 7 9 9 10 11 12 10 9 8 7 6 5 5 6 5 5 6 6
6 6 7 7 6 6 7 7 6 6 7 7 8 8 9 8 8 8 9 9 10 9 6 5 5 5 4 5 5 5 4 4 4 4 4 5 6 5 5 4 3 7 9 9 7 6 6 4 4 6 6 6
6 6 6 6 6 7 7 7 6 6 6 7 8 9 9 8 8 8 8 9 9 9 8 7 5 4 4 3 4 4 5 5 5 4 5 6 7 7 6 6 5 5 6 7 6 6 6 4 6 6 6 7
5 5 5 6 6 6 6 6 6 7 7 7 7 8 9 9 9 8 8 8 9 9 8 7 7 6 6 6 4 5 5 5 4 4 5 7 7 8 7 7 6 6 6 7 6 6 6 5 6 5 6 6
6 6 6 5 5 6 6 5 6 6 6 6 7 8 9 9 9 9 8 9 9 9 8 8 7 7 6 5 5 4 4 5 4 4 5 4 6 6 7 7 6 6 8 7 6 7 5 6 5 4 7 7
6 5 5 5 5 6 6 6 6 6 6 7 7 7 7 9 9 10 9 9 8 9 8 8 7 8 6 5 4 4 5 4 4 5 5 3 5 6 7 7 6 7 7 7 8 6 5 5 4 5 7 6
6 5 5 5 6 5 6 6 6 6 7 6 6 7 7 9 9 9 10 9 8 7 8 7 8 8 7 7 5 5 5 5 5 4 5 5 4 6 6 7 8 6 7 7 8 5 6 5 5 7 7 7
6 5 5 5 5 5 5 6 6 6 6 6 7 7 7 9 9 9 10 10 9 8 8 8 8 7 8 6 5 5 4 5 4 5 5 6 6 5 5 6 8 6 6 7 7 6 6 5 6 7 7 7
6 5 4 5 5 6 6 7 6 6 6 7 7 7 7 9 9 9 10 10 9 7 7 7 8 8 9 7 6 5 5 4 4 5 5 6 6 5 5 5 6 7 6 6 6 7 7 7 7 7 6 7
6 5 3 4 4 5 5 5 6 6 6 7 7 8 9 9 8 9 9 10 10 8 8 8 8 8 10 8 6 5 4 5 4 5 5 6 6 7 6 5 5 6 7 8 8 8 9 8 8 7 7 6
7 6 6 6 6 5 6 6 6 7 6 6 7 8 9 9 8 9 9 9 9 9 8 7 8 8 9 8 7 7 6 4 4 4 5 6 7 7 7 6 6 6 8 8 8 8 7 8 8 9 7 7
7 7 6 5 7 5 6 6 5 6 7 6 7 9 9 9 8 9 9 9 9 10 9 8 7 8 9 8 7 7 6 4 4 4 4 4 4 5 6 3 3 4 5 7 6 5 6 6 6 7 8 8
6 5 3 3 3 3 4 5 7 7 8 7 7 8 8 8 8 9 9 9 9 9 9 8 8 9 8 9 8 5 5 6 5 4 4 4 4 3 3 2 4 5 1 2 3 3 1 3 4 5 6 8
6 5 5 3 3 3 3 1 4 4 6 6 8 8 9 9 9 10 8 9 9 8 8 8 8 8 7 7 8 8 7 5 6 4 3 4 3 3 3 3 2 2 3 2 3 2 3 1 0 2 3 5
5 4 4 5 3 2 1 2 4 3 5 6 7 9 8 8 9 10 9 10 9 7 8 8 8 7 6 7 8 7 7 7 6 5 5 5 4 3 2 1 3 2 4 0 2 2 2 1 1 3 4 2
5 5 5 4 4 3 3 1 4 4 7 7 6 6 8 9 9 9 8 8 9 8 8 7 7 7 6 6 7 7 7 6 6 6 4 4 3 3 2 0 0 1 2 3 5 1 3 0 1 4 1 3
4 5 4 5 6 7 6 7 8 9 8 8 8 8 6 7 8 8 8 8 8 9 8 8 8 8 8 7 6 6 5 5 6 8 6 5 2 1 3 1 1 2 0 3 4 5 3 2 1 1 2 1
4 5 5 6 6 6 6 5 5 4 4 5 5 5 6 6 7 8 8 8 9 9 9 8 8 8 7 7 6 6 6 6 7 5 5 6 4 2 2 2 1 3 3 1 2 1 3 4 2 1 3 3
Wind_Direction
10 7 1 357 355 353 347 341 336 331 324 312 295 287 284 280 266 243 236 233 229 232 232 226 225 224 191 177 175 181 184 192 198 207 213 222 229 227 228 223 214 204 214 219 177 167 161 162 172 175 188 162
6 3 357 355 355 355 352 347 341 331 326 319 312 307 301 288 274 253 238 237 234 228 231 224 223 224 201 192 184 185 192 194 198 204 211 218 227 230 225 221 176 149 190 205 176 168 165 164 166 168 173 171
1 1 353 347 357 354 350 347 342 336 325 319 312 307 301 293 270 257 251 252 256 231 229 224 222 221 204 203 199 197 196 196 198 200 204 209 217 218 212 180 169 162 173 167 157 160 164 158 160 157 159 157
2 0 353 355 357 351 349 344 341 337 331 322 316 312 306 294 276 250 244 242 250 246 234 225 216 215 207 204 207 210 210 205 201 202 201 200 205 208 180 181 165 163 159 146 137 146 149 147 138 132 126 129
4 356 353 356 355 351 346 344 344 336 335 330 320 315 312 305 292 254 239 238 243 259 243 230 217 207 208 205 208 213 215 214 208 206 204 201 201 184 168 165 157 159 158 147 135 135 139 129 116 111 102 98
2 355 353 356 355 352 347 348 345 343 341 334 333 327 318 310 302 276 253 245 235 242 245 234 221 210 207 208 210 214 215 214 213 212 206 202 201 167 167 158 154 159 160 153 142 138 131 117 117 117 125 124
4 357 356 359 357 354 354 347 351 353 351 348 345 342 331 315 297 291 272 261 240 235 235 230 227 217 209 211 211 214 216 215 209 213 212 205 198 174 165 157 155 155 152 143 128 131 131 135 133 134 133 131
8 360 1 2 358 358 356 352 353 355 350 357 350 346 339 335 324 300 289 278 273 252 240 234 222 213 211 212 212 215 221 223 217 214 223 210 197 172 159 139 131 125 123 129 128 123 123 117 105 88 68 72
7 1 2 4 359 359 1 354 354 353 353 353 346 349 345 338 329 325 311 293 278 267 272 256 228 212 213 213 231 332 354 8 16 353 338 266 198 83 86 104 121 133 133 128 130 122 113 108 97 82 54 40
4 10 8 4 2 359 3 356 352 352 355 352 346 346 350 343 340 336 332 324 305 299 271 264 279 264 149 133 108 73 52 42 40 34 28 18 20 23 38 30 16 20 58 100 97 89 84 77 63 52 42 28
12 14 8 3 5 9 2 358 357 356 351 348 344 345 352 349 346 340 335 330 323 311 321 318 316 308 163 135 98 92 95 76 71 70 63 51 31 19 25 41 35 33 30 27 37 50 58 61 62 54 42 33
20 10 5 2 4 16 5 2 6 357 352 345 347 349 350 350 350 345 343 343 340 337 356 2 4 52 8 85 117 116 118 118 118 117 118 115 103 75 36 29 33 33 28 32 39 45 35 42 50 50 41 34
17 9 8 5 7 9 3 9 4 354 348 354 347 352 352 355 354 353 349 348 346 346 18 13 15 15 4 340 33 112 128 134 124 110 108 101 96 98 96 73 70 66 47 41 31 39 38 34 40 48 51 43
17 12 10 8 10 359 5 12 3 357 0 355 351 355 353 352 356 353 356 350 348 2 9 15 17 23 24 19 346 355 38 15 91 125 126 131 140 140 144 142 142 121 102 78 75 73 67 50 47 55 56 50
19 18 17 9 360 0 8 354 360 4 360 357 358 354 349 352 357 358 1 358 356 350 358 19 23 22 31 43 18 8 32 39 65 78 94 114 122 114 98 77 85 116 127 129 125 118 102 98 86 67 60 52
19 22 16 9 2 7 2 359 2 6 2 0 358 353 357 358 359 359 0 360 359 358 354 358 9 19 35 50 54 37 20 30 28 42 62 69 75 75 75 73 57 45 86 91 90 84 80 77 70 68 64 62
20 19 17 11 14 4 360 3 4 10 5 358 352 356 359 356 358 4 3 359 357 359 4 5 7 12 14 15 21 51 65 60 55 75 91 85 91 88 87 81 64 54 57 64 63 72 73 67 63 68 71 62
24 18 21 13 15 11 5 12 13 3 0 358 354 355 356 358 2 2 358 359 357 5 6 8 13 12 9 6 17 38 47 67 54 54 51 74 91 92 98 97 86 83 70 58 47 45 44 60 60 60 66 61
25 23 19 17 19 16 5 15 17 1 357 358 2 353 356 357 3 3 357 354 358 8 8 10 12 15 7 360 12 25 27 52 66 78 82 45 72 73 79 83 80 78 75 71 58 39 17 34 30 50 60 54
21 35 26 28 27 18 14 20 17 9 4 358 1 1 357 0 2 4 1 355 357 8 9 12 15 13 3 6 11 23 31 37 48 50 57 47 54 91 66 76 73 75 84 79 74 53 49 32 29 50 55 53
16 32 39 37 32 20 22 25 14 11 2 8 8 3 2 356 358 0 0 357 354 4 6 9 10 5 5 5 16 21 32 46 38 48 63 52 39 50 85 78 87 69 63 72 73 68 56 40 38 41 47 51
2 10 52 44 45 32 32 28 22 13 11 12 8 4 4 0 359 0 1 359 356 359 4 9 7 1 5 5 12 24 32 38 46 49 60 69 52 59 82 80 78 85 72 72 67 58 47 43 46 47 42 49
5 2 29 59 40 48 37 31 27 15 18 14 8 11 2 3 2 2 3 1 359 359 2 7 8 7 4 3 5 23 33 33 37 57 64 86 78 62 59 78 73 91 92 78 71 61 51 47 47 47 51 45
16 18 13 11 16 40 33 26 23 21 21 12 17 8 7 3 1 4 360 3 2 5 3 3 8 3 6 8 7 10 21 25 36 57 80 76 96 90 76 71 94 101 99 85 70 67 56 49 48 50 49 50
16 5 357 9 19 20 16 14 16 25 19 18 19 12 13 7 6 4 3 4 7 11 7 4 358 7 7 6 14 16 5 9 40 55 74 92 77 96 101 74 102 116 122 107 74 69 67 58 46 53 50 54
18 19 20 346 347 348 351 11 19 17 19 15 17 18 15 10 8 2 5 3 6 9 11 9 9 10 5 5 4 5 20 23 28 37 66 92 84 35 93 112 160 189 176 57 128 125 82 64 83 66 65 55
20 6 1 3 324 347 351 49 37 43 26 18 22 23 18 14 10 6 5 4 3 8 7 11 11 10 3 4 2 4 13 26 34 31 37 19 55 94 49 76 160 230 344 112 100 105 97 251 85 177 91 89
7 8 2 4 354 349 50 37 16 30 39 29 27 24 17 19 13 8 8 7 4 2 6 11 11 3 11 9 8 11 10 15 20 25 18 25 35 54 58 37 229 222 351 320 116 173 199 211 121 293 203 115
357 9 17 20 24 41 29 40 29 20 21 26 24 19 18 13 11 8 10 8 8 2 3 4 4 2 3 9 13 13 18 17 11 17 29 36 40 48 68 143 12 277 338 345 22 353 105 158 216 231 68 111
8 29 26 15 24 24 22 22 17 19 7 359 12 12 356 7 12 9 10 11 7 2 2 5 1 356 4 10 8 15 19 18 11 13 11 360 29 59 39 109 126 225 216 335 7 25 40 342 318 11 227 131
16 33 33 37 45 44 37 26 27 17 11 10 11 12 7 5 7 11 11 11 12 7 3 7 6 6 6 5 9 7 17 23 18 0 358 344 11 36 74 65 157 202 211 345 251 87 11 26 12 27 110 213